LGL4601 ELLX-EGLC

Flight info

Callsign LGL4601
Flight time 1h 3m
Altitude 24000
Route LNO1P LNO N852 TERLA L608 SUMUM SUMUM1C
Aircraft DH8D/M-SDE2E3FGRY/H

Departure

Time 2026-04-29 15:01
Airport Luxembourg-Findel International Airport (ELLX)

Arrival

Time 2026-04-29 16:04
Airport London City Airport (EGLC)
Time Latitude Longitude Altitude Speed Heading
2026-04-29 14:32 49.63232 6.21775 1227 ft 0 kts 60°
2026-04-29 14:56 49.63236 6.21788 1227 ft 3 kts 66°
2026-04-29 14:56 49.63246 6.21826 1226 ft 5 kts 79°
2026-04-29 14:57 49.63212 6.21883 1223 ft 9 kts 149°
2026-04-29 14:57 49.63145 6.21871 1219 ft 16 kts 248°
2026-04-29 14:57 49.63096 6.21709 1223 ft 15 kts 240°
2026-04-29 14:57 49.63057 6.21577 1226 ft 12 kts 244°
2026-04-29 14:58 49.63019 6.21457 1226 ft 12 kts 243°
2026-04-29 14:58 49.62985 6.21351 1229 ft 11 kts 244°
2026-04-29 14:58 49.62949 6.21231 1233 ft 13 kts 247°
2026-04-29 14:58 49.62906 6.21087 1235 ft 14 kts 240°
2026-04-29 14:59 49.62861 6.20949 1235 ft 14 kts 245°
2026-04-29 14:59 49.62812 6.20793 1235 ft 18 kts 240°
2026-04-29 14:59 49.62714 6.20639 1231 ft 20 kts 216°
2026-04-29 14:59 49.62610 6.20487 1226 ft 21 kts 222°
2026-04-29 15:00 49.62505 6.20508 1224 ft 12 kts 148°
2026-04-29 15:00 49.62443 6.20589 1222 ft 12 kts 93°
2026-04-29 15:00 49.62578 6.20974 1225 ft 84 kts 61°
2026-04-29 15:00 49.62985 6.22074 1263 ft 142 kts 65°
2026-04-29 15:01 49.63465 6.23459 1809 ft 149 kts 63°
2026-04-29 15:01 49.63907 6.24760 2738 ft 136 kts 61°
2026-04-29 15:01 49.64341 6.25970 3564 ft 131 kts 64°
2026-04-29 15:01 49.64795 6.27241 4084 ft 148 kts 64°
2026-04-29 15:02 49.65340 6.28755 4425 ft 172 kts 63°
2026-04-29 15:02 49.65945 6.30392 4993 ft 181 kts 62°
2026-04-29 15:02 49.66573 6.32055 5642 ft 184 kts 62°
2026-04-29 15:02 49.67411 6.33562 6263 ft 193 kts 34°
2026-04-29 15:03 49.68763 6.33799 6873 ft 208 kts 351°
2026-04-29 15:03 49.70139 6.33028 7502 ft 213 kts 343°
2026-04-29 15:03 49.71496 6.32159 8156 ft 214 kts 342°
2026-04-29 15:03 49.72869 6.31257 8768 ft 216 kts 341°
2026-04-29 15:04 49.74293 6.30312 9163 ft 229 kts 341°
2026-04-29 15:04 49.75768 6.29317 9700 ft 233 kts 340°
2026-04-29 15:04 49.77250 6.28307 10312 ft 235 kts 340°
2026-04-29 15:04 49.78752 6.27278 10897 ft 237 kts 340°
2026-04-29 15:05 49.80261 6.26241 11452 ft 239 kts 340°
2026-04-29 15:05 49.81775 6.25198 12000 ft 240 kts 340°
2026-04-29 15:05 49.83350 6.24116 12132 ft 259 kts 340°
2026-04-29 15:05 49.85039 6.22954 12405 ft 269 kts 340°
2026-04-29 15:06 49.86759 6.21759 12842 ft 273 kts 340°
2026-04-29 15:06 49.88508 6.20543 13279 ft 275 kts 340°
2026-04-29 15:06 49.90248 6.19331 13713 ft 276 kts 340°
2026-04-29 15:06 49.92007 6.18106 14147 ft 278 kts 340°
2026-04-29 15:07 49.93771 6.16876 14579 ft 278 kts 340°
2026-04-29 15:07 49.95535 6.15646 14969 ft 279 kts 340°
2026-04-29 15:07 49.97296 6.14418 15350 ft 280 kts 340°
2026-04-29 15:07 49.99090 6.13166 15741 ft 281 kts 340°
2026-04-29 15:08 50.00865 6.11927 16105 ft 281 kts 340°
2026-04-29 15:08 50.02649 6.10679 16447 ft 282 kts 340°
2026-04-29 15:08 50.04451 6.09419 16801 ft 282 kts 340°
2026-04-29 15:08 50.06250 6.08160 17106 ft 284 kts 339°
2026-04-29 15:09 50.08078 6.06880 17428 ft 285 kts 339°
2026-04-29 15:09 50.09894 6.05606 17719 ft 286 kts 339°
2026-04-29 15:09 50.11699 6.04339 18053 ft 286 kts 339°
2026-04-29 15:09 50.13532 6.03051 18355 ft 287 kts 339°
2026-04-29 15:10 50.15354 6.01772 18623 ft 289 kts 339°
2026-04-29 15:10 50.17193 6.00479 18900 ft 291 kts 339°
2026-04-29 15:10 50.19038 5.99181 19174 ft 292 kts 340°
2026-04-29 15:10 50.20889 5.97877 19437 ft 294 kts 340°
2026-04-29 15:11 50.22760 5.96557 19677 ft 295 kts 340°
2026-04-29 15:11 50.24637 5.95233 19941 ft 296 kts 340°
2026-04-29 15:11 50.26521 5.93903 20214 ft 297 kts 340°
2026-04-29 15:11 50.28388 5.92582 20417 ft 298 kts 340°
2026-04-29 15:12 50.30288 5.91237 20623 ft 298 kts 340°
2026-04-29 15:12 50.32184 5.89895 20815 ft 299 kts 340°
2026-04-29 15:12 50.34078 5.88552 20959 ft 302 kts 341°
2026-04-29 15:12 50.35985 5.87199 21177 ft 301 kts 340°
2026-04-29 15:13 50.37904 5.85837 21298 ft 303 kts 341°
2026-04-29 15:13 50.39825 5.84472 21447 ft 304 kts 341°
2026-04-29 15:13 50.41758 5.83097 21571 ft 305 kts 341°
2026-04-29 15:13 50.43686 5.81724 21687 ft 307 kts 341°
2026-04-29 15:14 50.45632 5.80337 21875 ft 305 kts 341°
2026-04-29 15:14 50.47586 5.78944 21957 ft 308 kts 341°
2026-04-29 15:14 50.49520 5.77562 22149 ft 306 kts 341°
2026-04-29 15:14 50.51475 5.76166 22240 ft 308 kts 341°
2026-04-29 15:15 50.53414 5.74779 22349 ft 309 kts 341°
2026-04-29 15:15 50.55365 5.73383 22463 ft 309 kts 341°
2026-04-29 15:15 50.57320 5.71947 22532 ft 312 kts 338°
2026-04-29 15:15 50.58997 5.69682 22557 ft 327 kts 311°
2026-04-29 15:16 50.60113 5.66505 22668 ft 333 kts 302°
2026-04-29 15:16 50.61126 5.63234 22759 ft 334 kts 301°
2026-04-29 15:16 50.62139 5.59947 22817 ft 336 kts 301°
2026-04-29 15:16 50.63148 5.56677 22948 ft 335 kts 301°
2026-04-29 15:17 50.64174 5.53357 22978 ft 337 kts 301°
2026-04-29 15:17 50.65205 5.50027 23070 ft 337 kts 301°
2026-04-29 15:17 50.66220 5.46749 23121 ft 338 kts 301°
2026-04-29 15:17 50.67263 5.43379 23241 ft 337 kts 301°
2026-04-29 15:18 50.68292 5.40055 23269 ft 339 kts 301°
2026-04-29 15:18 50.69312 5.36758 23369 ft 338 kts 302°
2026-04-29 15:18 50.70357 5.33377 23383 ft 340 kts 301°
2026-04-29 15:18 50.71393 5.30025 23423 ft 341 kts 301°
2026-04-29 15:19 50.72426 5.26675 23472 ft 341 kts 301°
2026-04-29 15:19 50.73466 5.23300 23501 ft 343 kts 301°
2026-04-29 15:19 50.74502 5.19934 23583 ft 342 kts 300°
2026-04-29 15:19 50.75552 5.16537 23637 ft 342 kts 301°
2026-04-29 15:20 50.76595 5.13162 23623 ft 346 kts 298°
2026-04-29 15:20 50.77472 5.09571 23684 ft 346 kts 294°
2026-04-29 15:20 50.78284 5.06035 23986 ft 338 kts 294°
2026-04-29 15:20 50.79062 5.02635 24343 ft 332 kts 295°
2026-04-29 15:21 50.79857 4.99189 24496 ft 330 kts 295°
2026-04-29 15:21 50.80634 4.95817 24524 ft 334 kts 295°
2026-04-29 15:21 50.81455 4.92277 24309 ft 345 kts 295°
2026-04-29 15:21 50.82281 4.88699 24254 ft 349 kts 294°
2026-04-29 15:22 50.83111 4.85101 24244 ft 352 kts 294°
2026-04-29 15:22 50.83958 4.81415 24238 ft 355 kts 294°
2026-04-29 15:22 50.84792 4.77785 24240 ft 356 kts 294°
2026-04-29 15:22 50.85640 4.74085 24240 ft 358 kts 294°
2026-04-29 15:23 50.86488 4.70378 24237 ft 359 kts 294°
2026-04-29 15:23 50.87339 4.66655 24239 ft 359 kts 294°
2026-04-29 15:23 50.88187 4.62937 24243 ft 360 kts 294°
2026-04-29 15:23 50.89037 4.59208 24238 ft 360 kts 294°
2026-04-29 15:24 50.89892 4.55452 24240 ft 361 kts 294°
2026-04-29 15:24 50.90954 4.51886 24248 ft 357 kts 304°
2026-04-29 15:24 50.92225 4.48569 24241 ft 357 kts 306°
2026-04-29 15:24 50.93533 4.45200 24242 ft 357 kts 306°
2026-04-29 15:25 50.94827 4.41860 24243 ft 357 kts 306°
2026-04-29 15:25 50.96130 4.38486 24245 ft 357 kts 306°
2026-04-29 15:25 50.97420 4.35136 24246 ft 357 kts 306°
2026-04-29 15:25 50.98706 4.31787 24245 ft 357 kts 305°
2026-04-29 15:26 51.00010 4.28382 24245 ft 357 kts 305°
2026-04-29 15:26 51.01287 4.25043 24243 ft 357 kts 305°
2026-04-29 15:26 51.02573 4.21674 24242 ft 357 kts 304°
2026-04-29 15:26 51.03856 4.18306 24248 ft 357 kts 304°
2026-04-29 15:27 51.05146 4.14916 24250 ft 357 kts 304°
2026-04-29 15:27 51.06416 4.11574 24248 ft 358 kts 304°
2026-04-29 15:27 51.07704 4.08178 24245 ft 358 kts 304°
2026-04-29 15:27 51.08998 4.04760 24247 ft 358 kts 304°
2026-04-29 15:28 51.10276 4.01382 24250 ft 358 kts 304°
2026-04-29 15:28 51.11140 3.99094 24242 ft 359 kts 304°
2026-04-29 15:28 51.12848 3.94566 24243 ft 359 kts 304°
2026-04-29 15:28 51.14133 3.91155 24241 ft 359 kts 304°
2026-04-29 15:29 51.15415 3.87746 24236 ft 360 kts 304°
2026-04-29 15:29 51.17987 3.80894 24230 ft 360 kts 304°
2026-04-29 15:30 51.20554 3.74036 24224 ft 361 kts 304°
2026-04-29 15:30 51.21834 3.70610 24236 ft 361 kts 304°
2026-04-29 15:30 51.23105 3.67205 24236 ft 362 kts 304°
2026-04-29 15:30 51.24408 3.63707 24223 ft 363 kts 304°
2026-04-29 15:31 51.25683 3.60279 24227 ft 363 kts 304°
2026-04-29 15:31 51.26979 3.56788 24236 ft 364 kts 304°
2026-04-29 15:31 51.28265 3.53322 24245 ft 364 kts 304°
2026-04-29 15:31 51.29556 3.49835 24234 ft 365 kts 304°
2026-04-29 15:32 51.30848 3.46345 24233 ft 365 kts 304°
2026-04-29 15:32 51.32125 3.42888 24234 ft 366 kts 304°
2026-04-29 15:32 51.33431 3.39348 24244 ft 366 kts 304°
2026-04-29 15:32 51.34704 3.35821 24243 ft 367 kts 301°
2026-04-29 15:33 51.35707 3.32103 24248 ft 368 kts 293°
2026-04-29 15:33 51.36614 3.28250 24244 ft 368 kts 292°
2026-04-29 15:33 51.37519 3.24390 24246 ft 369 kts 292°
2026-04-29 15:33 51.38419 3.20549 24199 ft 366 kts 292°
2026-04-29 15:34 51.39301 3.16766 23420 ft 365 kts 292°
2026-04-29 15:34 51.40192 3.12947 22888 ft 365 kts 292°
2026-04-29 15:34 51.41061 3.09234 22521 ft 358 kts 292°
2026-04-29 15:34 51.41936 3.05498 22205 ft 353 kts 292°
2026-04-29 15:35 51.42791 3.01847 21921 ft 349 kts 292°
2026-04-29 15:35 51.43637 2.98239 21643 ft 351 kts 292°
2026-04-29 15:35 51.44498 2.94568 21344 ft 353 kts 292°
2026-04-29 15:35 51.45364 2.90868 21039 ft 354 kts 292°
2026-04-29 15:36 51.46228 2.87166 20746 ft 355 kts 292°
2026-04-29 15:36 51.47086 2.83489 20435 ft 356 kts 292°
2026-04-29 15:36 51.47960 2.79735 20152 ft 356 kts 292°
2026-04-29 15:36 51.48812 2.76065 19861 ft 356 kts 292°
2026-04-29 15:37 51.49683 2.72311 19541 ft 357 kts 293°
2026-04-29 15:37 51.50549 2.68571 19255 ft 357 kts 293°
2026-04-29 15:37 51.51407 2.64856 18958 ft 357 kts 292°
2026-04-29 15:37 51.52272 2.61108 18654 ft 357 kts 292°
2026-04-29 15:38 51.53126 2.57399 18354 ft 357 kts 292°
2026-04-29 15:38 51.53986 2.53656 18053 ft 356 kts 292°
2026-04-29 15:38 51.54839 2.49940 17743 ft 356 kts 292°
2026-04-29 15:38 51.55697 2.46192 17461 ft 356 kts 292°
2026-04-29 15:39 51.56548 2.42471 17145 ft 356 kts 292°
2026-04-29 15:39 51.57397 2.38753 16874 ft 356 kts 292°
2026-04-29 15:39 51.58253 2.34998 16550 ft 356 kts 292°
2026-04-29 15:39 51.59094 2.31305 16253 ft 356 kts 292°
2026-04-29 15:40 51.59952 2.27536 15954 ft 355 kts 292°
2026-04-29 15:40 51.60792 2.23843 15661 ft 355 kts 292°
2026-04-29 15:40 51.61634 2.20132 15376 ft 354 kts 292°
2026-04-29 15:40 51.62485 2.16373 15060 ft 353 kts 292°
2026-04-29 15:41 51.63322 2.12671 14770 ft 353 kts 292°
2026-04-29 15:41 51.64159 2.08961 14473 ft 353 kts 292°
2026-04-29 15:41 51.64988 2.05274 14183 ft 352 kts 292°
2026-04-29 15:41 51.65819 2.01564 13878 ft 351 kts 292°
2026-04-29 15:42 51.66643 1.97883 13578 ft 351 kts 292°
2026-04-29 15:42 51.67479 1.94145 13280 ft 350 kts 292°
2026-04-29 15:42 51.68301 1.90462 12989 ft 350 kts 291°
2026-04-29 15:42 51.69119 1.86789 12690 ft 349 kts 291°
2026-04-29 15:43 51.69926 1.83158 12406 ft 348 kts 291°
2026-04-29 15:43 51.70749 1.79446 12111 ft 346 kts 292°
2026-04-29 15:43 51.71555 1.75809 11828 ft 345 kts 291°
2026-04-29 15:43 51.72356 1.72187 11529 ft 342 kts 291°
2026-04-29 15:44 51.73144 1.68606 11234 ft 335 kts 291°
2026-04-29 15:44 51.73909 1.65124 10966 ft 329 kts 291°
2026-04-29 15:44 51.74596 1.61614 10659 ft 325 kts 282°
2026-04-29 15:44 51.74611 1.58051 10463 ft 318 kts 264°
2026-04-29 15:45 51.74386 1.54529 10334 ft 316 kts 263°
2026-04-29 15:45 51.74044 1.51014 10175 ft 314 kts 252°
2026-04-29 15:45 51.73026 1.47960 9998 ft 310 kts 232°
2026-04-29 15:45 51.71786 1.45141 9878 ft 308 kts 231°
2026-04-29 15:46 51.70527 1.42323 9753 ft 307 kts 231°
2026-04-29 15:46 51.69273 1.39541 9622 ft 306 kts 231°
2026-04-29 15:46 51.68021 1.36773 9494 ft 305 kts 231°
2026-04-29 15:46 51.66779 1.34035 9362 ft 303 kts 230°
2026-04-29 15:47 51.65525 1.31279 9215 ft 302 kts 230°
2026-04-29 15:47 51.64286 1.28557 9076 ft 301 kts 230°
2026-04-29 15:47 51.63051 1.25851 8928 ft 300 kts 230°
2026-04-29 15:47 51.61826 1.23171 8781 ft 299 kts 230°
2026-04-29 15:48 51.60595 1.20479 8633 ft 297 kts 230°
2026-04-29 15:48 51.59357 1.17779 8480 ft 296 kts 230°
2026-04-29 15:48 51.58137 1.15118 8332 ft 295 kts 229°
2026-04-29 15:48 51.56930 1.12492 8168 ft 287 kts 230°
2026-04-29 15:49 51.55758 1.09946 7976 ft 285 kts 230°
2026-04-29 15:49 51.54580 1.07387 7794 ft 285 kts 230°
2026-04-29 15:49 51.53405 1.04837 7615 ft 286 kts 230°
2026-04-29 15:49 51.52220 1.02269 7433 ft 285 kts 230°
2026-04-29 15:50 51.51038 0.99710 7252 ft 283 kts 230°
2026-04-29 15:50 51.49871 0.97186 7069 ft 281 kts 230°
2026-04-29 15:50 51.48710 0.94677 6872 ft 279 kts 229°
2026-04-29 15:50 51.47729 0.92019 6649 ft 284 kts 249°
2026-04-29 15:51 51.47549 0.88832 6411 ft 285 kts 272°
2026-04-29 15:51 51.47673 0.85681 6295 ft 281 kts 274°
2026-04-29 15:51 51.47802 0.82604 6255 ft 274 kts 274°
2026-04-29 15:51 51.47927 0.79622 6250 ft 267 kts 274°
2026-04-29 15:52 51.48049 0.76654 6257 ft 267 kts 274°
2026-04-29 15:52 51.48170 0.73688 6252 ft 269 kts 274°
2026-04-29 15:52 51.48289 0.70667 6257 ft 271 kts 274°
2026-04-29 15:52 51.48406 0.67624 6189 ft 275 kts 274°
2026-04-29 15:53 51.48523 0.64548 6074 ft 281 kts 274°
2026-04-29 15:53 51.48640 0.61404 5946 ft 284 kts 274°
2026-04-29 15:53 51.48755 0.58229 5651 ft 285 kts 273°
2026-04-29 15:53 51.48867 0.55077 5305 ft 285 kts 274°
2026-04-29 15:54 51.48980 0.51905 4958 ft 286 kts 273°
2026-04-29 15:54 51.49081 0.48744 4601 ft 286 kts 271°
2026-04-29 15:54 51.48704 0.45635 4221 ft 279 kts 242°
2026-04-29 15:54 51.47783 0.42994 4028 ft 271 kts 236°
2026-04-29 15:55 51.46818 0.40363 3986 ft 270 kts 236°
2026-04-29 15:55 51.45871 0.37802 3964 ft 268 kts 235°
2026-04-29 15:55 51.44913 0.35216 3940 ft 268 kts 235°
2026-04-29 15:55 51.43956 0.32630 3775 ft 271 kts 234°
2026-04-29 15:56 51.43166 0.29890 3563 ft 279 kts 255°
2026-04-29 15:56 51.43098 0.26760 3379 ft 282 kts 272°
2026-04-29 15:56 51.43212 0.23626 3188 ft 283 kts 273°
2026-04-29 15:56 51.43329 0.20487 3035 ft 280 kts 274°
2026-04-29 15:57 51.43442 0.17428 2981 ft 275 kts 274°
2026-04-29 15:57 51.43551 0.14395 2873 ft 273 kts 274°
2026-04-29 15:57 51.43660 0.11294 2488 ft 276 kts 274°
2026-04-29 15:57 51.43758 0.08287 2212 ft 269 kts 275°
2026-04-29 15:58 51.43854 0.05307 1973 ft 260 kts 275°
2026-04-29 15:58 51.43945 0.02486 1921 ft 246 kts 276°
2026-04-29 15:58 51.44030 -0.00201 1934 ft 239 kts 276°
2026-04-29 15:58 51.44117 -0.02871 1951 ft 237 kts 276°
2026-04-29 15:59 51.44196 -0.05425 1977 ft 227 kts 276°
2026-04-29 15:59 51.44325 -0.07966 1958 ft 232 kts 285°
2026-04-29 15:59 51.45074 -0.10032 1942 ft 203 kts 333°
2026-04-29 15:59 51.46298 -0.10844 1978 ft 191 kts 355°
2026-04-29 16:00 51.47569 -0.11390 1967 ft 189 kts 356°
2026-04-29 16:00 51.48827 -0.11609 1946 ft 167 kts 24°
2026-04-29 16:00 51.49609 -0.10772 1917 ft 117 kts 53°
2026-04-29 16:00 51.50160 -0.09817 1990 ft 117 kts 54°
2026-04-29 16:01 51.50676 -0.08842 1981 ft 112 kts 64°
2026-04-29 16:01 51.50824 -0.07647 2037 ft 105 kts 88°
2026-04-29 16:01 51.50806 -0.06507 2000 ft 99 kts 88°
2026-04-29 16:01 51.50782 -0.05440 1997 ft 96 kts 89°
2026-04-29 16:02 51.50746 -0.04336 1984 ft 100 kts 88°
2026-04-29 16:02 51.50717 -0.03188 1757 ft 104 kts 88°
2026-04-29 16:02 51.50697 -0.02061 1431 ft 102 kts 87°
2026-04-29 16:02 51.50692 -0.00919 1164 ft 104 kts 87°
2026-04-29 16:03 51.50661 0.00272 1034 ft 112 kts 89°
2026-04-29 16:03 51.50642 0.01534 781 ft 113 kts 88°
2026-04-29 16:03 51.50600 0.02777 434 ft 111 kts 89°
2026-04-29 16:03 51.50566 0.04026 162 ft 113 kts 89°
2026-04-29 16:04 51.50533 0.05210 25 ft 90 kts 94°
2026-04-29 16:04 51.50516 0.05720 23 ft 18 kts 93°
2026-04-29 16:04 51.50512 0.05884 23 ft 11 kts 91°
2026-04-29 16:04 51.50510 0.05975 23 ft 5 kts 93°
2026-04-29 16:05 51.50480 0.06044 23 ft 10 kts 186°
2026-04-29 16:05 51.50428 0.05955 23 ft 12 kts 257°
2026-04-29 16:05 51.50429 0.05809 23 ft 13 kts 274°
2026-04-29 16:05 51.50435 0.05629 23 ft 19 kts 274°
2026-04-29 16:06 51.50441 0.05436 26 ft 16 kts 274°
2026-04-29 16:06 51.50446 0.05258 26 ft 17 kts 273°
2026-04-29 16:06 51.50452 0.05082 23 ft 10 kts 274°
2026-04-29 16:06 51.50462 0.04983 23 ft 8 kts 275°
2026-04-29 16:07 51.50466 0.04872 21 ft 10 kts 272°
2026-04-29 16:07 51.50468 0.04760 20 ft 9 kts 271°
2026-04-29 16:07 51.50449 0.04720 20 ft 3 kts 180°
2026-04-29 16:07 51.50444 0.04720 20 ft 0 kts 180°